Time,TemperatureF,DewpointF,PressureIn,WindDirection,WindDirectionDegrees,WindSpeedMPH,WindSpeedGustMPH,Humidity,HourlyPrecipIn,Conditions,Clouds,dailyrainin,SoftwareType,DateUTC
2013-04-26 00:28:00,34.4,33.1,28.00,SW,225,1.0,4.0,95,0.00,,---,0.00,VWS V14.01,2013-04-26 08:28:00,
2013-04-26 00:58:00,34.1,32.8,28.00,South,188,4.0,7.0,95,0.00,,---,0.00,VWS V14.01,2013-04-26 08:58:00,
2013-04-26 01:28:00,33.9,32.6,28.00,WSW,239,1.0,5.0,95,0.00,,---,0.00,VWS V14.01,2013-04-26 09:28:00,
2013-04-26 01:58:00,33.8,32.8,28.00,South,188,3.0,6.0,96,0.00,,---,0.00,VWS V14.01,2013-04-26 09:58:00,
2013-04-26 02:28:00,33.9,32.4,28.00,SW,221,4.0,6.0,94,0.00,,---,0.00,VWS V14.01,2013-04-26 10:28:00,
2013-04-26 02:58:00,33.6,32.3,28.00,SSW,200,1.0,6.0,95,0.00,,---,0.00,VWS V14.01,2013-04-26 10:58:00,
2013-04-26 03:28:00,33.4,32.4,28.00,NE,40,0.0,4.0,96,0.00,,---,0.00,VWS V14.01,2013-04-26 11:28:00,
2013-04-26 03:58:00,33.3,32.3,28.00,SW,225,0.0,4.0,96,0.00,,---,0.00,VWS V14.01,2013-04-26 11:58:00,
2013-04-26 04:28:00,33.2,31.9,28.00,SE,125,1.0,6.0,95,0.00,,---,0.00,VWS V14.01,2013-04-26 12:28:00,
2013-04-26 04:58:00,32.9,31.9,28.00,North,354,1.0,5.0,96,0.00,,---,0.00,VWS V14.01,2013-04-26 12:58:00,
2013-04-26 05:28:00,32.7,31.7,28.00,WNW,291,1.0,7.0,96,0.00,,---,0.00,VWS V14.01,2013-04-26 13:28:00,
2013-04-26 05:58:00,32.6,31.6,28.00,WNW,293,0.0,6.0,96,0.00,,---,0.00,VWS V14.01,2013-04-26 13:58:00,
2013-04-26 06:28:00,32.7,31.7,28.00,SW,224,1.0,7.0,96,0.00,,---,0.00,VWS V14.01,2013-04-26 14:28:00,
2013-04-26 06:58:00,32.6,31.6,28.00,NW,305,2.0,5.0,96,0.00,,---,0.00,VWS V14.01,2013-04-26 14:58:00,
2013-04-26 07:28:00,32.4,31.4,28.00,NE,34,1.0,6.0,96,0.00,,---,0.00,VWS V14.01,2013-04-26 15:28:00,
2013-04-26 07:58:00,32.2,31.2,28.00,NNE,24,2.0,6.0,96,0.00,,---,0.00,VWS V14.01,2013-04-26 15:58:00,
2013-04-26 08:27:00,32.1,30.8,28.00,SE,131,0.0,7.0,95,0.00,,---,0.00,VWS V14.01,2013-04-26 16:27:00,
2013-04-26 08:58:00,32.0,30.7,28.00,SW,232,0.0,4.0,95,0.00,,---,0.00,VWS V14.01,2013-04-26 16:58:00,
2013-04-26 09:28:00,32.0,30.7,28.00,NNW,330,1.0,4.0,95,0.00,,---,0.00,VWS V14.01,2013-04-26 17:28:00,
2013-04-26 10:39:00,31.8,30.5,28.00,WSW,257,0.0,4.0,95,0.00,,---,0.00,VWS V14.01,2013-04-26 18:39:00,
2013-04-26 10:58:00,31.6,30.3,28.00,NE,44,0.0,4.0,95,0.00,,---,0.00,VWS V14.01,2013-04-26 18:58:00,
2013-04-26 11:58:00,31.1,30.1,28.00,NNW,347,1.0,5.0,96,0.00,,---,0.00,VWS V14.01,2013-04-26 19:58:00,
2013-04-26 12:28:00,31.0,30.0,28.00,SW,228,0.0,5.0,96,0.00,,---,0.00,VWS V14.01,2013-04-26 20:28:00,
2013-04-26 12:58:00,30.9,29.9,28.00,WSW,242,0.0,4.0,96,0.00,,---,0.00,VWS V14.01,2013-04-26 20:58:00,
2013-04-26 13:28:00,30.8,29.8,28.00,SSW,197,0.0,5.0,96,0.00,,---,0.00,VWS V14.01,2013-04-26 21:28:00,
2013-04-26 13:58:00,30.8,29.8,28.00,SSW,197,0.0,2.0,96,0.00,,---,0.00,VWS V14.01,2013-04-26 21:58:00,
2013-04-26 14:28:00,30.7,29.7,28.00,SSW,197,0.0,3.0,96,0.00,,---,0.00,VWS V14.01,2013-04-26 22:28:00,
2013-04-26 14:58:00,31.1,30.4,28.00,SSW,197,0.0,2.0,97,0.00,,---,0.00,VWS V14.01,2013-04-26 22:58:00,
2013-04-26 15:28:00,31.5,30.8,28.00,SSW,197,0.0,0.0,97,0.00,,---,0.00,VWS V14.01,2013-04-26 23:28:00,
2013-04-26 16:28:00,31.5,30.5,28.00,NE,44,0.0,0.0,96,0.00,,---,0.00,VWS V14.01,2013-04-27 00:28:00,
2013-04-26 16:58:00,32.3,31.3,28.00,NE,41,0.0,0.0,96,0.00,,---,0.00,VWS V14.01,2013-04-27 00:58:00,
2013-04-26 17:28:00,32.3,31.3,28.00,NNW,345,0.0,2.0,96,0.00,,---,0.00,VWS V14.01,2013-04-27 01:28:00,
2013-04-26 17:58:00,32.4,31.1,28.00,East,99,0.0,1.0,95,0.00,,---,0.00,VWS V14.01,2013-04-27 01:58:00,
2013-04-26 18:28:00,32.7,31.4,28.00,NE,54,0.0,1.0,95,0.00,,---,0.00,VWS V14.01,2013-04-27 02:28:00,
2013-04-26 18:58:00,32.1,31.1,28.00,NE,49,1.0,2.0,96,0.00,,---,0.00,VWS V14.01,2013-04-27 02:58:00,
2013-04-26 19:28:00,32.1,30.8,28.00,SW,214,0.0,1.0,95,0.00,,---,0.00,VWS V14.01,2013-04-27 03:28:00,
2013-04-26 19:58:00,32.1,31.1,28.00,SSE,156,0.0,0.0,96,0.00,,---,0.00,VWS V14.01,2013-04-27 03:58:00,
2013-04-26 20:28:00,31.7,30.4,28.00,SSE,156,0.0,0.0,95,0.00,,---,0.00,VWS V14.01,2013-04-27 04:28:00,
2013-04-26 20:58:00,31.4,30.4,28.00,SW,217,0.0,2.0,96,0.00,,---,0.00,VWS V14.01,2013-04-27 04:58:00,
2013-04-26 21:28:00,31.2,29.9,28.00,NW,324,0.0,3.0,95,0.00,,---,0.00,VWS V14.01,2013-04-27 05:28:00,
2013-04-26 21:58:00,31.2,29.9,28.00,SW,219,0.0,3.0,95,0.00,,---,0.00,VWS V14.01,2013-04-27 05:58:00,
2013-04-26 22:28:00,31.0,30.0,28.00,SW,221,0.0,1.0,96,0.00,,---,0.00,VWS V14.01,2013-04-27 06:28:00,
2013-04-26 22:58:00,30.9,29.6,28.00,SSE,162,0.0,1.0,95,0.00,,---,0.00,VWS V14.01,2013-04-27 06:58:00,
2013-04-26 23:28:00,30.8,29.5,28.00,SSE,162,0.0,1.0,95,0.00,,---,0.00,VWS V14.01,2013-04-27 07:28:00,
2013-04-26 23:58:00,30.9,29.6,28.00,South,184,0.0,1.0,95,0.00,,---,0.00,VWS V14.01,2013-04-27 07:58:00,